Weather History for Port Angeles, WA

Change the Weather History Date:

Thursday, December 26, 2013

  Actual Average Record
Temperature  
Mean Temperature 38 °F -  
Max Temperature 46 °F 46 °F 60 °F (1980)
Min Temperature 30 °F 35 °F 23 °F (1951)
Degree Days  
Heating Degree Days 27    
Moisture  
Dew Point 35 °F    
Average Humidity 89    
Maximum Humidity 97    
Minimum Humidity 79    
Precipitation  
Precipitation 0.00 in - - ()
Sea Level Pressure  
Sea Level Pressure 30.29 in    
Wind  
Wind Speed 2 mph (South)    
Max Wind Speed 7 mph    
Max Gust Speed -    
Visibility 9 miles    
Events      
Averages and records for this station are not official NWS values.
T = Trace of Precipitation, MM = Missing Value Source: NWS Daily Summary

Daily Weather History Graph

Daily Weather History Graph

Search for Another Location

Airport:

Trip Planner

Search our weather history database for the weather conditions in past years. The results will help you decide how hot, cold, wet, or windy it might be!

Date:

Astronomy

Dec. 26, 2013 Rise Set
Actual Time 8:03 AM PST 4:26 PM PST
Civil Twilight 7:27 AM PST 5:02 PM PST
Nautical Twilight 6:47 AM PST 5:42 PM PST
Astronomical Twilight 6:09 AM PST 6:20 PM PST
Moon 1:17 AM PST (12/26) 12:22 PM PST (12/26)
Length of Visible Light 9h 35m
Length of Day
8h 22m
Last Quarter, 37% of the Moon is Illuminated
Dec 26
Last Quarter
Jan 1
New
Jan 7
First Quarter
Jan 15
Full
Jan 23
Last Quarter

Hourly Weather History & Observations

Time (PST) Temp. Windchill Dew Point Humidity Pressure Visibility Wind Dir Wind Speed Gust Speed Precip Events Conditions
12:53 AM 41.0 °F - 37.0 °F 86% 30.39 in 10.0 mi North - - N/A   Overcast
1:53 AM 41.0 °F - 37.0 °F 86% 30.39 in 10.0 mi North - - N/A   Overcast
2:53 AM 41.0 °F - 37.0 °F 86% 30.40 in 10.0 mi North - - N/A   Overcast
3:53 AM 42.1 °F - 37.0 °F 82% 30.38 in 10.0 mi North - - N/A   Overcast
4:53 AM 39.0 °F - 37.0 °F 93% 30.37 in 10.0 mi North - - N/A   Overcast
5:53 AM 36.0 °F - 34.0 °F 93% 30.36 in 10.0 mi North - - N/A   Clear
6:53 AM 34.0 °F - 32.0 °F 92% 30.35 in 10.0 mi North - - N/A   Clear
7:53 AM 37.0 °F 31.6 °F 34.0 °F 89% 30.34 in 10.0 mi SW 6.9 mph - N/A   Clear
8:53 AM 36.0 °F - 34.0 °F 93% 30.34 in 10.0 mi Calm Calm - N/A   Clear
9:53 AM 39.0 °F - 37.0 °F 93% 30.35 in 10.0 mi Calm Calm - N/A   Clear
10:53 AM 44.1 °F - 39.0 °F 82% 30.33 in 10.0 mi Calm Calm - N/A   Clear
11:53 AM 45.0 °F 43.5 °F 39.0 °F 80% 30.32 in 10.0 mi East 3.5 mph - N/A   Clear
12:53 PM 45.0 °F 43.5 °F 39.0 °F 80% 30.30 in 10.0 mi NNE 3.5 mph - N/A   Clear
1:53 PM 46.0 °F - 39.9 °F 79% 30.29 in 10.0 mi Calm Calm - N/A   Clear
2:53 PM 45.0 °F 43.5 °F 39.9 °F 82% 30.28 in 10.0 mi NE 3.5 mph - N/A   Clear
3:53 PM 44.1 °F - 39.0 °F 82% 30.28 in 10.0 mi Calm Calm - N/A   Clear
4:53 PM 39.0 °F - 36.0 °F 89% 30.26 in 10.0 mi Calm Calm - N/A   Clear
5:53 PM 36.0 °F 33.3 °F 35.1 °F 97% 30.26 in 10.0 mi SW 3.5 mph - N/A   Clear
6:53 PM 32.0 °F 28.7 °F 30.9 °F 96% 30.24 in 9.0 mi SE 3.5 mph - N/A   Clear
7:53 PM 33.1 °F - 30.9 °F 92% 30.24 in 10.0 mi Calm Calm - N/A   Clear
8:53 PM 32.0 °F - 30.0 °F 92% 30.22 in 10.0 mi Calm Calm - N/A   Clear
9:31 PM 33.1 °F - 30.9 °F 92% 30.21 in 2.0 mi Calm Calm - N/A   Partly Cloudy
9:46 PM 30.9 °F 27.5 °F 30.0 °F 96% 30.20 in 5.0 mi SSE 3.5 mph - N/A   Partly Cloudy
9:53 PM 30.9 °F - 30.0 °F 96% 30.22 in 7.0 mi Calm Calm - N/A   Partly Cloudy
10:53 PM 32.0 °F 27.5 °F 30.0 °F 92% 30.22 in 10.0 mi SW 4.6 mph - N/A   Clear
11:31 PM 30.9 °F - 30.0 °F 96% 30.21 in 6.0 mi Calm Calm - N/A   Partly Cloudy
11:44 PM 33.1 °F - 30.9 °F 92% 30.20 in 2.0 mi Calm Calm - N/A   Scattered Clouds
11:53 PM 30.9 °F 27.5 °F 30.0 °F 96% 30.21 in 10.0 mi SW 3.5 mph - N/A   Partly Cloudy